Tracking 33180 objects as of 11-Feb-2026
HD Live streaming from Space Station
objects crossing your sky now

LEMUR 2 KRISH

Track LEMUR 2 KRISH now!
10-day predictions
LEMUR 2 KRISH is classified as:


NORAD ID: 64561
Int'l Code: 2025-135AK
Perigee: 589.8 km
Apogee: 591.1 km
Inclination: 97.8 °
Period: 96.3 minutes
Semi major axis: 6961 km
RCS: Unknown
Launch date: June 23, 2025
Source: United States (US)
Launch site: AIR FORCE WESTERN TEST RANGE (AFWTR)
Your satellite tracking list
Your tracking list is empty




NASA's NSSDC Master Catalog

Two Line Element Set (TLE):
1 64561U 25135AK  26042.55707487  .00007230  00000-0  67125-3 0  9991
2 64561  97.7604 158.5473 0000998 104.2218 255.9114 14.94699126 35145
Source of the keplerian elements: AFSPC